Location: Orinda
(37.8771°N, 122.1797°W)
Time: 16:56:15
(UTC+00:00)

Cosmos 2237 Rocket - Pass Details

Date: 21 October 2019
Orbit: 833 x 851 km, 71.0° (Epoch: 12 November)

Event Time Altitude Azimuth Distance (km) Brightness Sun altitude
Exits shadow 12:58:44 25° 297° (WNW) 1,662 3.2 -17.3°
Maximum altitude 12:59:06 25° 303° (WNW) 1,656 3.3 -17.2°
Drops below altitude 10° 13:03:44 10° 358° (N) 2,482 4.6 -16.3°
Sets 13:06:40 0° 11° (NNE) 3,423 5.5 -15.7°
